TimeCDT,TemperatureF,Dew PointF,Humidity,Sea Level PressureIn,VisibilityMPH,Wind Direction,Wind SpeedMPH,Gust SpeedMPH,PrecipitationIn,Events,Conditions,WindDirDegrees,DateUTC
12:15 AM,69.8,60.8,73,30.03,10.0,Calm,Calm,-,N/A,,Clear,0,2013-08-02 05:15:00
12:35 AM,69.8,60.8,73,30.03,10.0,Calm,Calm,-,N/A,,Clear,0,2013-08-02 05:35:00
12:55 AM,69.8,59.0,68,30.02,10.0,Calm,Calm,-,N/A,,Clear,0,2013-08-02 05:55:00
1:15 AM,69.8,59.0,68,30.02,9.0,Calm,Calm,-,N/A,,Clear,0,2013-08-02 06:15:00
1:35 AM,69.8,59.0,68,30.03,10.0,Calm,Calm,-,N/A,,Clear,0,2013-08-02 06:35:00
1:55 AM,69.8,59.0,68,30.03,6.0,Calm,Calm,-,N/A,,Clear,0,2013-08-02 06:55:00
2:15 AM,68.0,59.0,73,30.01,6.0,Calm,Calm,-,N/A,,Clear,0,2013-08-02 07:15:00
2:35 AM,68.0,59.0,73,30.01,9.0,Calm,Calm,-,N/A,,Clear,0,2013-08-02 07:35:00
2:55 AM,68.0,59.0,73,30.00,6.0,Calm,Calm,-,N/A,,Clear,0,2013-08-02 07:55:00
3:15 AM,68.0,59.0,73,30.00,5.0,Calm,Calm,-,N/A,,Clear,0,2013-08-02 08:15:00
3:35 AM,66.2,59.0,78,30.00,10.0,Calm,Calm,-,N/A,,Clear,0,2013-08-02 08:35:00
3:55 AM,66.2,57.2,73,30.00,8.0,Calm,Calm,-,N/A,,Clear,0,2013-08-02 08:55:00
4:15 AM,66.2,57.2,73,30.01,6.0,Calm,Calm,-,N/A,,Clear,0,2013-08-02 09:15:00
4:35 AM,66.2,57.2,73,30.01,7.0,Calm,Calm,-,N/A,,Clear,0,2013-08-02 09:35:00
4:55 AM,66.2,57.2,73,30.02,10.0,Calm,Calm,-,N/A,,Clear,0,2013-08-02 09:55:00
5:15 AM,66.2,57.2,73,30.01,6.0,Calm,Calm,-,N/A,,Clear,0,2013-08-02 10:15:00
5:35 AM,66.2,57.2,73,30.02,7.0,Calm,Calm,-,N/A,,Clear,0,2013-08-02 10:35:00
5:55 AM,66.2,57.2,73,30.02,6.0,Calm,Calm,-,N/A,,Clear,0,2013-08-02 10:55:00
6:35 AM,66.2,57.2,73,30.02,5.0,Calm,Calm,-,N/A,,Clear,0,2013-08-02 11:35:00
6:55 AM,68.0,59.0,73,30.03,5.0,Calm,Calm,-,N/A,,Clear,0,2013-08-02 11:55:00
7:15 AM,69.8,60.8,73,30.02,7.0,SE,3.5,-,N/A,,Clear,130,2013-08-02 12:15:00
7:35 AM,69.8,60.8,73,30.03,10.0,Calm,Calm,-,N/A,,Clear,0,2013-08-02 12:35:00
7:55 AM,71.6,62.6,73,30.02,10.0,SE,4.6,-,N/A,,Clear,140,2013-08-02 12:55:00
8:15 AM,73.4,62.6,69,30.04,10.0,Calm,Calm,-,N/A,,Clear,0,2013-08-02 13:15:00
8:35 AM,75.2,62.6,65,30.04,10.0,Calm,Calm,-,N/A,,Clear,0,2013-08-02 13:35:00
8:55 AM,77.0,62.6,61,30.05,10.0,SE,4.6,-,N/A,,Clear,140,2013-08-02 13:55:00
9:15 AM,78.8,62.6,57,30.05,10.0,South,3.5,-,N/A,,Clear,190,2013-08-02 14:15:00
9:35 AM,80.6,62.6,54,30.05,10.0,South,3.5,-,N/A,,Clear,190,2013-08-02 14:35:00
9:55 AM,80.6,62.6,54,30.05,10.0,South,6.9,-,N/A,,Clear,170,2013-08-02 14:55:00
10:16 AM,80.6,62.6,54,30.05,10.0,South,5.8,-,N/A,,Clear,180,2013-08-02 15:16:00
10:35 AM,82.4,62.6,51,30.04,10.0,South,5.8,-,N/A,,Clear,190,2013-08-02 15:35:00
10:55 AM,82.4,62.6,51,30.04,10.0,South,8.1,-,N/A,,Clear,180,2013-08-02 15:55:00
11:15 AM,84.2,62.6,48,30.04,10.0,SSW,6.9,-,N/A,,Clear,210,2013-08-02 16:15:00
11:35 AM,82.4,60.8,48,30.05,10.0,South,4.6,-,N/A,,Clear,170,2013-08-02 16:35:00
11:55 AM,86.0,64.4,48,30.05,10.0,SSW,6.9,-,N/A,,Clear,210,2013-08-02 16:55:00
12:15 PM,84.2,62.6,48,30.05,10.0,South,3.5,-,N/A,,Clear,180,2013-08-02 17:15:00
12:35 PM,86.0,62.6,45,30.04,10.0,SE,6.9,-,N/A,,Clear,140,2013-08-02 17:35:00
12:55 PM,84.2,62.6,48,30.04,10.0,SSW,4.6,-,N/A,,Partly Cloudy,200,2013-08-02 17:55:00
1:15 PM,86.0,62.6,45,30.03,10.0,SSE,4.6,-,N/A,,Partly Cloudy,160,2013-08-02 18:15:00
1:35 PM,87.8,62.6,43,30.03,10.0,SW,4.6,-,N/A,,Clear,220,2013-08-02 18:35:00
1:55 PM,86.0,62.6,45,30.02,10.0,SSE,5.8,-,N/A,,Clear,160,2013-08-02 18:55:00
2:15 PM,87.8,64.4,46,30.02,10.0,SE,8.1,-,N/A,,Partly Cloudy,140,2013-08-02 19:15:00
2:35 PM,84.2,62.6,48,30.01,10.0,South,8.1,-,N/A,,Partly Cloudy,180,2013-08-02 19:35:00
2:55 PM,86.0,62.6,45,30.01,10.0,SSE,6.9,-,N/A,,Clear,150,2013-08-02 19:55:00
3:15 PM,86.0,60.8,43,30.01,10.0,South,4.6,-,N/A,,Clear,180,2013-08-02 20:15:00
3:35 PM,86.0,62.6,45,30.00,10.0,SSE,6.9,-,N/A,,Clear,160,2013-08-02 20:35:00
3:55 PM,87.8,62.6,43,30.00,10.0,South,4.6,-,N/A,,Clear,190,2013-08-02 20:55:00
4:15 PM,87.8,62.6,43,30.00,10.0,South,6.9,-,N/A,,Clear,180,2013-08-02 21:15:00
4:35 PM,86.0,60.8,43,29.99,8.0,SSE,5.8,-,N/A,,Clear,150,2013-08-02 21:35:00
4:55 PM,84.2,60.8,45,29.99,10.0,South,4.6,-,N/A,,Clear,170,2013-08-02 21:55:00
5:15 PM,86.0,62.6,45,29.98,10.0,South,3.5,-,N/A,,Clear,170,2013-08-02 22:15:00
5:35 PM,84.2,62.6,48,29.98,10.0,SSE,4.6,-,N/A,,Clear,160,2013-08-02 22:35:00
5:55 PM,84.2,62.6,48,29.98,10.0,South,3.5,-,N/A,,Clear,180,2013-08-02 22:55:00
6:15 PM,84.2,62.6,48,29.97,10.0,SSE,4.6,-,N/A,,Clear,150,2013-08-02 23:15:00
6:55 PM,82.4,60.8,48,29.97,10.0,SE,3.5,-,N/A,,Clear,140,2013-08-02 23:55:00
7:15 PM,82.4,62.6,51,29.97,10.0,SSE,3.5,-,N/A,,Clear,160,2013-08-03 00:15:00
7:35 PM,80.6,62.6,54,29.97,10.0,SSE,3.5,-,N/A,,Clear,160,2013-08-03 00:35:00
7:55 PM,78.8,62.6,57,29.97,10.0,SSE,3.5,-,N/A,,Clear,150,2013-08-03 00:55:00
8:15 PM,78.8,62.6,57,29.98,10.0,Calm,Calm,-,N/A,,Clear,0,2013-08-03 01:15:00
8:35 PM,77.0,62.6,61,29.98,10.0,SE,4.6,-,N/A,,Clear,130,2013-08-03 01:35:00
8:55 PM,77.0,62.6,61,29.99,10.0,SE,4.6,-,N/A,,Clear,140,2013-08-03 01:55:00
9:15 PM,77.0,62.6,61,29.99,10.0,SE,3.5,-,N/A,,Clear,130,2013-08-03 02:15:00
9:35 PM,78.8,62.6,57,30.01,10.0,NE,3.5,-,N/A,,Scattered Clouds,40,2013-08-03 02:35:00
9:55 PM,77.0,64.4,65,30.01,10.0,Calm,Calm,-,N/A,,Mostly Cloudy,0,2013-08-03 02:55:00
10:15 PM,75.2,64.4,69,30.00,10.0,SE,4.6,-,N/A,,Mostly Cloudy,140,2013-08-03 03:15:00
10:55 PM,75.2,62.6,65,29.98,10.0,Calm,Calm,-,N/A,,Scattered Clouds,0,2013-08-03 03:55:00
11:15 PM,75.2,62.6,65,29.97,10.0,South,4.6,-,N/A,,Scattered Clouds,180,2013-08-03 04:15:00
11:35 PM,75.2,62.6,65,29.98,10.0,Calm,Calm,-,N/A,,Partly Cloudy,0,2013-08-03 04:35:00
11:55 PM,75.2,62.6,65,29.98,10.0,Calm,Calm,-,N/A,,Mostly Cloudy,0,2013-08-03 04:55:00